Location: *
(53.4003°S, 165.3236°W)
Time: 01:59:45
(UTC+00:00)

YAOGAN 6 - Pass Details

Date: 11 December 2023
Orbit: 425 x 449 km, 97.2° (Epoch: 24 February)

Event Time Altitude Azimuth Distance (km) Brightness Sun altitude
Rises 13:20:18 0° 27° (NNE) 2,442 5.8 -7.3°
Reaches altitude 10° 13:22:20 10° 32° (NNE) 1,586 4.9 -7.2°
Maximum altitude 13:25:39 52° 108° (ESE) 578 3.3 -6.9°
Drops below altitude 10° 13:29:04 10° 185° (S) 1,632 6.0 -6.6°
Sets 13:31:10 0° 190° (S) 2,522 6.9 -6.4°
